Tracking 18851 objects as of 25-Nov-2017
HD Live streaming from Space Station
objects crossing your sky now

FENGYUN 1C DEB

Track FENGYUN 1C DEB now!
10-day predictions


NORAD ID: 38714
Int'l Code: 1999-025ETF
Perigee: 609.7 km
Apogee: 927.7 km
Inclination: 97.9 °
Period: 100.1 minutes
Semi major axis: 7139 km
RCS: 0.0001 m2 (small)
Launch date: May 10, 1999
Source: People's Republic of China (PRC)
Launch site: Taiyaun Space Center, China (TSC)

Note: This is SATELLITE DEBRIS
aabbcc
Your satellite tracking list
Your tracking list is empty




NASA's NSSDC Master Catalog

Two Line Element Set (TLE):
1 38714U 99025ETF 17326.33861753  .00004001  00000-0  97825-3 0  9992
2 38714  97.8965 281.2445 0222677 128.1027 234.0474 14.39070904370036
Source of the keplerian elements: AFSPC